Wind_Speed
1 3 4 1 4 3 2 3 1 5 5 3 5 2 1 1 2 3 7 8 8 6 5 4 4 4 3 3 4 3 3 3 2 2 2 3 4 7 7 7 7 8 8 10 10 10 9 9 8
1 3 2 2 4 5 4 4 6 5 7 11 9 6 4 2 2 4 6 10 8 6 5 5 4 3 3 3 4 4 4 3 3 2 3 3 4 4 5 6 7 7 8 9 9 9 9 9 9
3 3 1 2 3 4 1 7 6 8 13 5 4 2 3 2 5 7 7 11 9 6 5 5 4 4 4 4 4 5 4 4 3 3 3 3 3 4 5 6 6 6 6 6 6 7 7 7 7
3 1 1 5 5 1 1 7 6 10 7 4 3 3 2 6 6 7 10 10 8 6 5 5 5 4 4 5 5 6 5 4 3 3 2 2 2 2 2 3 3 3 3 3 5 5 5 6 6
3 1 4 4 3 1 3 5 8 7 6 7 7 3 2 6 8 9 10 9 7 6 6 6 6 5 4 5 6 6 4 4 3 2 2 2 1 1 1 1 2 2 2 3 4 4 5 7 6
2 1 4 7 3 3 3 7 7 7 4 5 5 4 3 8 10 11 11 10 8 6 8 6 6 6 6 6 6 4 3 2 2 3 3 2 1 1 1 1 0 1 1 1 2 3 4 5 6
2 2 3 3 2 3 5 9 9 9 7 8 2 4 2 9 13 13 12 10 9 7 7 8 7 7 6 7 6 4 2 2 3 3 4 3 4 4 3 2 2 2 2 2 1 1 4 6 5
3 2 2 3 4 2 5 10 4 9 8 5 7 4 3 10 16 15 14 12 11 9 7 9 8 8 8 7 7 6 4 3 3 4 4 3 3 3 3 3 4 3 3 4 3 5 8 7 8
4 4 4 2 5 3 7 7 4 4 4 7 8 4 4 9 17 16 16 15 14 11 9 9 8 8 8 8 7 6 5 4 4 4 4 4 3 4 4 4 5 5 5 6 6 7 7 7 13
3 3 2 1 1 1 9 7 7 5 8 8 9 11 9 10 17 17 17 15 14 11 10 10 9 9 8 8 7 6 5 5 5 5 4 4 4 5 5 5 5 5 5 6 8 9 9 11 11
2 3 1 1 2 1 6 5 5 5 7 10 10 11 13 12 16 17 15 13 12 11 10 11 11 10 9 8 7 7 6 6 6 5 5 5 5 5 6 6 6 7 8 9 10 10 10 9 8
3 1 2 2 3 3 4 3 4 11 7 6 6 11 13 16 17 17 16 14 14 13 11 12 12 12 10 9 8 7 7 7 6 6 6 6 5 5 6 6 8 9 10 11 12 12 11 11 11
4 4 3 3 4 3 3 6 7 13 13 13 13 11 13 16 18 17 16 15 15 15 14 14 14 13 11 10 10 9 9 8 6 5 5 5 6 7 8 9 9 11 12 12 12 12 12 11 11
3 4 3 4 4 4 4 4 2 6 8 13 17 16 14 17 19 19 21 21 19 16 17 17 17 17 15 12 12 11 10 8 8 6 6 5 6 6 7 7 8 9 9 9 10 12 12 13 12
4 2 2 7 5 4 3 8 10 12 12 11 13 17 19 21 22 24 22 22 20 18 17 21 20 19 17 14 14 12 11 10 9 8 7 7 7 7 7 8 9 9 9 10 10 11 11 9 10
3 2 4 4 5 2 3 11 6 8 11 13 14 18 23 25 27 25 23 23 23 21 22 23 23 20 19 16 14 14 13 12 11 9 8 7 7 6 7 8 9 9 10 10 10 10 9 10 11
3 4 6 2 4 1 7 7 1 6 8 12 14 16 20 21 25 26 25 25 23 22 23 25 24 23 20 17 16 16 16 15 13 10 9 8 7 7 8 8 9 9 9 10 10 11 11 11 12
4 5 4 6 2 4 8 17 14 9 8 14 16 17 19 22 28 27 25 24 24 23 24 25 25 25 22 20 18 18 17 15 13 11 9 8 7 7 7 8 9 8 9 10 10 10 11 11 12
1 2 5 2 2 3 10 15 19 18 16 22 26 25 27 29 27 28 29 26 26 25 26 27 28 27 26 23 20 19 18 16 14 12 10 9 7 7 8 8 8 8 8 9 10 10 11 11 11
5 7 9 3 1 3 11 18 19 21 18 22 21 20 23 24 26 32 32 30 28 26 26 28 29 29 27 24 20 19 17 16 15 14 12 10 8 7 7 7 8 9 9 10 10 11 11 12 11
7 10 6 4 2 2 10 14 8 2 5 11 16 18 19 19 19 21 31 36 30 28 26 28 29 29 28 26 22 20 18 17 17 15 14 12 9 8 7 8 9 9 10 11 11 11 11 10 12
10 7 5 4 3 5 4 9 13 7 11 12 15 14 17 18 21 20 21 34 36 29 25 27 28 29 30 29 26 22 19 17 17 17 16 14 11 9 8 9 9 10 12 13 13 13 13 13 11
1 3 4 2 3 4 5 5 6 2 13 16 17 2 8 9 12 14 17 25 29 28 25 25 26 28 30 30 27 23 21 19 18 18 17 15 12 11 10 10 11 13 14 14 14 14 14 14 14
11 5 4 4 1 4 8 10 16 8 9 4 3 4 12 12 4 7 12 20 29 27 25 25 27 29 31 31 30 27 23 21 20 20 18 15 13 12 11 11 12 14 15 16 16 16 15 15 15
3 5 2 3 3 5 4 6 15 18 14 10 14 10 11 13 11 7 10 20 27 28 25 25 27 29 31 33 32 29 25 23 21 20 18 16 14 11 11 12 14 16 16 16 17 17 16 16 16
9 4 4 4 3 2 2 7 5 9 17 10 9 11 13 10 10 10 11 16 22 24 24 24 24 26 28 32 33 30 27 25 23 21 19 17 14 12 12 15 17 17 17 17 17 17 17 17 17
6 8 1 4 2 4 7 8 10 13 13 12 17 17 17 13 12 11 9 15 19 21 22 22 23 25 28 32 33 31 29 27 24 20 18 16 14 13 15 17 18 17 17 16 16 17 17 16 16
3 5 3 2 4 8 5 5 6 4 9 11 16 18 19 21 22 18 13 11 17 21 21 22 23 25 26 30 33 33 29 26 24 21 20 16 14 15 17 18 17 16 16 16 16 15 15 15 15
5 4 2 2 3 4 8 3 2 5 10 11 15 18 20 20 24 23 19 14 12 19 21 22 24 24 25 28 32 31 30 27 25 22 19 16 15 17 18 18 17 15 15 15 15 14 14 14 15
3 6 12 6 7 5 4 8 6 11 14 16 14 18 20 21 21 22 23 21 15 16 21 24 25 24 25 26 30 30 27 24 23 21 18 16 16 18 18 17 15 13 13 12 13 14 15 15 16
Wind_Direction
271 148 138 100 224 250 167 161 61 147 148 106 127 205 202 329 304 13 148 158 159 157 155 144 140 144 141 142 139 134 137 130 125 114 97 100 79 64 81 90 90 82 79 80 78 75 74 73 69
162 151 106 247 255 228 154 156 192 140 121 127 126 139 180 136 144 134 140 163 171 166 165 146 153 152 144 147 144 140 135 137 131 121 103 95 87 87 96 87 82 79 70 63 66 69 70 72 68
156 161 238 262 254 257 200 178 153 133 149 158 151 206 165 165 162 157 162 173 169 168 163 182 164 155 143 146 145 139 132 136 138 131 113 107 112 124 97 87 79 82 85 86 91 89 88 86 78
152 108 51 251 255 203 338 158 148 145 161 209 200 178 204 191 151 161 165 170 167 176 173 174 165 151 146 146 149 143 136 139 145 141 137 133 130 134 138 85 69 88 93 92 62 51 59 68 71
175 237 230 245 224 227 193 170 165 172 160 179 191 163 211 201 182 170 166 171 161 174 181 178 169 169 162 158 160 151 152 158 165 173 178 169 194 172 166 64 69 105 91 62 59 50 35 30 29
208 258 233 240 219 176 189 172 171 194 188 168 194 169 204 197 189 177 170 177 181 182 183 188 183 179 178 176 173 177 155 160 180 190 193 182 179 192 186 224 7 75 60 75 51 40 37 24 17
266 234 280 277 214 200 182 167 194 196 195 203 192 207 192 193 190 186 180 180 186 189 192 186 186 178 175 179 180 185 207 228 215 206 203 208 223 236 231 224 219 194 182 199 148 18 8 349 353
181 251 221 220 206 177 154 172 197 199 206 204 194 224 174 189 195 188 190 191 192 196 190 189 190 189 189 199 207 225 239 227 207 184 179 194 213 219 217 216 218 208 224 227 234 278 309 317 320
164 235 248 230 186 129 150 188 170 218 207 203 203 218 205 182 195 194 196 200 200 201 201 193 192 196 193 199 201 203 203 190 187 181 184 181 202 211 218 220 222 235 247 260 270 287 293 294 310
240 245 247 8 204 229 172 190 177 200 208 226 232 230 226 203 198 202 202 205 205 204 212 208 202 206 196 197 193 191 194 189 187 193 198 208 213 213 219 225 239 247 254 266 278 287 289 301 300
192 270 9 224 218 204 172 201 190 221 226 230 233 233 223 210 203 208 207 207 210 209 214 213 214 212 206 201 200 195 196 199 202 204 214 224 233 232 236 246 256 265 274 278 282 286 288 292 298
224 234 199 169 185 179 189 177 225 226 242 203 228 228 212 214 210 209 208 209 210 216 214 214 216 207 204 206 205 206 203 206 211 217 225 231 238 239 244 254 264 270 272 274 277 283 285 285 282
212 179 186 174 190 219 216 237 261 249 241 238 241 227 219 211 210 213 212 214 214 220 217 211 207 205 207 210 211 213 210 206 208 212 224 228 235 240 254 267 271 273 273 274 279 281 284 284 276
147 175 178 194 200 223 247 241 269 246 216 224 238 225 216 211 207 209 215 217 221 220 215 211 211 212 216 217 217 215 212 210 212 217 222 229 238 248 258 271 276 275 280 283 284 287 291 292 271
128 206 219 212 204 232 240 238 230 242 231 242 234 217 217 217 212 216 218 218 220 220 214 213 210 211 213 217 219 219 216 213 219 221 223 229 239 255 270 277 280 282 285 285 287 292 296 299 291
195 227 236 148 186 189 217 265 223 216 219 232 221 219 222 221 222 221 219 220 220 218 215 213 213 212 213 217 218 218 217 218 222 224 231 243 256 267 274 279 283 286 287 289 288 290 293 287 287
205 250 223 229 203 228 225 278 250 220 235 246 237 234 232 232 229 225 224 224 224 225 220 216 215 214 214 217 220 217 217 219 221 224 231 241 255 268 278 287 287 288 290 290 289 291 287 285 283
219 228 223 255 111 241 239 258 266 252 253 257 259 255 247 241 237 233 231 232 229 229 227 222 219 218 215 217 220 219 220 223 224 227 232 242 255 270 283 286 288 289 291 289 292 293 290 284 282
78 262 266 203 92 275 257 273 279 275 258 259 257 253 250 246 245 239 232 231 231 230 228 222 220 219 217 219 222 221 222 223 224 228 231 242 257 271 279 283 287 289 289 290 292 290 289 290 287
216 246 255 250 196 261 294 287 280 273 255 254 262 257 252 250 240 237 233 230 230 228 227 222 222 221 221 223 228 225 224 224 224 226 229 236 246 262 279 288 289 291 291 288 288 288 286 284 285
224 235 230 265 288 201 301 281 239 222 242 244 255 259 261 253 248 241 230 227 227 227 227 223 222 223 221 222 223 221 221 222 224 227 229 233 240 253 272 279 283 284 283 282 284 284 283 277 284
237 200 183 177 237 270 328 293 263 256 261 255 265 256 268 263 252 237 229 221 222 225 227 222 221 222 221 220 221 223 225 225 224 223 223 228 234 246 260 271 280 283 283 282 281 279 277 277 274
349 113 138 132 208 316 196 259 276 184 270 277 280 332 348 296 242 239 236 221 217 218 223 219 221 223 222 221 223 225 225 227 224 222 223 227 234 246 259 270 278 281 281 280 278 277 274 272 270
140 105 79 67 130 240 237 218 280 280 284 289 308 12 15 11 333 255 241 213 210 215 218 218 221 222 221 219 220 223 226 229 227 225 225 228 236 247 260 270 276 279 278 278 276 274 273 273 271
204 169 224 220 185 248 17 223 253 300 284 277 287 326 339 327 332 292 237 208 209 216 219 220 223 223 221 220 222 223 226 231 230 227 225 229 237 246 261 274 279 279 275 275 275 274 274 272 270
187 228 218 237 246 325 153 228 243 281 298 294 322 327 334 331 321 291 256 229 221 221 223 227 229 230 229 226 225 224 227 230 231 230 230 232 236 249 266 279 280 276 272 272 272 273 273 273 272
160 209 50 283 154 263 242 243 281 272 284 4 33 37 19 355 342 332 282 245 233 234 238 239 238 235 234 232 229 227 228 231 232 232 234 236 243 257 272 278 277 273 271 271 272 272 273 273 273
238 136 144 204 251 257 209 259 245 300 20 39 40 25 20 25 22 12 354 292 251 244 244 246 248 246 241 233 226 226 229 231 233 231 233 239 252 265 275 275 272 269 268 268 270 270 270 271 271
158 199 198 267 214 271 286 249 96 48 51 33 23 21 18 19 18 12 5 350 274 255 254 257 255 249 241 231 227 224 226 228 229 230 232 240 258 268 273 268 264 263 264 267 270 272 275 276 272
230 225 197 223 218 239 283 262 142 71 45 22 11 3 352 346 348 346 347 351 328 278 263 260 258 250 244 234 226 224 227 230 233 233 234 246 266 270 269 256 263 268 267 266 269 275 281 280 275
Height
1533 1532 1533 1534 1535 1528 1533 1536 1537 1539 1541 1545 1546 1546 1544 1545 1542 1546 1549 1549 1550 1551 1552 1553 1553 1553 1554 1554 1554 1554 1554 1554 1554 1554 1554 1554 1554 1553 1552 1552 1551 1551 1550 1549 1549 1549 1549 1549 1549
1533 1534 1534 1534 1531 1531 1529 1534 1537 1538 1544 1546 1547 1547 1546 1544 1547 1548 1550 1550 1551 1552 1552 1553 1553 1553 1554 1554 1554 1554 1555 1554 1554 1554 1555 1555 1555 1555 1554 1553 1553 1553 1552 1552 1551 1551 1551 1550 1550
1534 1534 1536 1531 1529 1528 1528 1533 1534 1541 1544 1545 1546 1547 1547 1546 1547 1549 1548 1549 1550 1551 1552 1553 1553 1553 1554 1554 1554 1555 1555 1555 1555 1555 1555 1555 1555 1555 1555 1555 1555 1554 1554 1553 1552 1550 1551 1551 1551
1535 1536 1537 1530 1527 1531 1530 1531 1536 1540 1545 1546 1545 1545 1547 1545 1547 1548 1548 1549 1550 1551 1552 1553 1553 1553 1554 1554 1554 1555 1555 1555 1555 1555 1555 1556 1555 1555 1556 1556 1556 1555 1554 1554 1554 1554 1553 1552 1552
1536 1536 1531 1531 1530 1532 1535 1536 1538 1539 1541 1543 1545 1543 1545 1545 1545 1546 1548 1549 1551 1551 1552 1553 1553 1553 1554 1554 1554 1555 1555 1555 1555 1556 1556 1556 1556 1556 1556 1556 1556 1556 1555 1555 1555 1554 1554 1554 1553
1537 1536 1531 1530 1529 1532 1534 1537 1539 1539 1541 1543 1544 1544 1544 1543 1545 1546 1548 1549 1550 1551 1552 1552 1553 1553 1554 1554 1554 1554 1554 1555 1554 1555 1555 1555 1555 1555 1556 1556 1556 1556 1556 1555 1555 1555 1555 1554 1554
1535 1533 1529 1530 1530 1532 1532 1537 1538 1538 1539 1541 1542 1541 1543 1543 1544 1546 1548 1549 1550 1550 1551 1552 1553 1553 1553 1554 1554 1554 1554 1554 1554 1554 1554 1555 1555 1555 1555 1555 1555 1555 1555 1555 1555 1555 1554 1554 1554
1536 1534 1534 1531 1529 1529 1534 1537 1537 1538 1538 1539 1541 1538 1539 1541 1542 1544 1546 1548 1549 1550 1550 1551 1551 1552 1552 1553 1553 1553 1553 1553 1553 1554 1554 1554 1554 1554 1555 1555 1555 1555 1555 1555 1555 1554 1554 1554 1553
1535 1532 1529 1528 1533 1528 1535 1535 1537 1538 1539 1539 1539 1539 1539 1539 1541 1542 1544 1545 1547 1548 1549 1549 1550 1550 1551 1551 1551 1552 1552 1552 1553 1553 1553 1553 1553 1553 1554 1554 1554 1554 1554 1554 1554 1554 1554 1553 1552
1534 1530 1526 1530 1530 1530 1533 1534 1535 1537 1537 1537 1537 1537 1538 1538 1539 1541 1542 1544 1545 1547 1547 1548 1549 1549 1549 1550 1550 1551 1551 1551 1552 1552 1553 1553 1552 1552 1552 1553 1553 1553 1553 1553 1553 1553 1552 1552 1552
1534 1529 1531 1532 1533 1533 1533 1535 1535 1534 1533 1532 1534 1536 1536 1537 1538 1539 1542 1544 1545 1546 1546 1546 1547 1548 1549 1548 1549 1550 1549 1550 1550 1551 1551 1552 1551 1552 1552 1552 1552 1552 1552 1552 1552 1552 1551 1551 1550
1533 1533 1532 1533 1533 1534 1533 1533 1532 1532 1529 1529 1530 1532 1533 1535 1537 1538 1540 1541 1542 1543 1544 1544 1545 1546 1547 1547 1548 1548 1548 1548 1548 1549 1550 1550 1551 1551 1551 1551 1551 1551 1551 1550 1550 1550 1550 1549 1549
1530 1532 1533 1532 1533 1534 1533 1532 1531 1527 1526 1526 1527 1528 1530 1531 1533 1535 1537 1538 1539 1539 1540 1541 1542 1544 1545 1545 1546 1546 1547 1547 1547 1547 1548 1549 1549 1549 1549 1549 1549 1549 1548 1548 1548 1548 1548 1548 1547
1530 1531 1531 1532 1532 1533 1532 1530 1530 1521 1520 1521 1522 1524 1525 1526 1528 1530 1530 1532 1533 1535 1536 1537 1538 1540 1541 1543 1543 1544 1545 1546 1546 1546 1547 1547 1548 1548 1548 1548 1547 1547 1546 1546 1546 1546 1545 1545 1544
1531 1530 1530 1530 1530 1530 1531 1526 1521 1517 1517 1518 1517 1519 1520 1520 1521 1521 1524 1526 1527 1529 1531 1532 1534 1536 1538 1539 1541 1542 1543 1543 1544 1544 1545 1545 1546 1546 1546 1546 1545 1545 1544 1544 1543 1544 1542 1543 1541
1530 1530 1527 1526 1529 1528 1530 1513 1511 1513 1513 1513 1513 1513 1513 1514 1515 1517 1519 1521 1522 1524 1526 1527 1529 1532 1534 1536 1538 1539 1540 1540 1541 1541 1542 1543 1544 1544 1544 1544 1544 1543 1542 1542 1541 1541 1541 1541 1540
1529 1522 1526 1523 1528 1528 1528 1512 1510 1512 1512 1512 1511 1511 1511 1511 1512 1514 1516 1518 1520 1522 1523 1524 1526 1528 1531 1533 1534 1535 1536 1537 1538 1539 1540 1541 1541 1542 1542 1542 1541 1540 1540 1539 1539 1538 1539 1539 1538
1521 1525 1526 1522 1528 1529 1525 1517 1509 1512 1512 1511 1509 1509 1508 1507 1507 1511 1514 1515 1517 1519 1521 1523 1525 1527 1528 1530 1531 1532 1534 1536 1537 1538 1538 1539 1539 1539 1539 1538 1538 1538 1538 1538 1538 1537 1537 1536 1535
1525 1524 1523 1523 1529 1528 1517 1515 1508 1507 1508 1505 1501 1501 1500 1499 1502 1505 1507 1509 1511 1514 1517 1520 1522 1524 1526 1527 1529 1530 1531 1533 1534 1535 1535 1536 1536 1536 1536 1536 1536 1536 1535 1535 1535 1534 1533 1532 1532
1524 1523 1521 1524 1528 1528 1515 1511 1502 1496 1497 1495 1494 1493 1492 1492 1493 1494 1499 1502 1505 1507 1510 1513 1516 1519 1523 1525 1527 1528 1529 1530 1531 1532 1532 1533 1533 1534 1534 1533 1533 1532 1532 1532 1531 1531 1531 1531 1530
1522 1520 1521 1524 1525 1527 1520 1494 1490 1489 1491 1490 1487 1485 1485 1485 1485 1486 1489 1493 1498 1501 1504 1507 1510 1514 1517 1520 1522 1523 1525 1526 1528 1529 1529 1530 1530 1530 1530 1530 1530 1529 1529 1529 1529 1528 1528 1528 1527
1521 1520 1523 1526 1524 1522 1524 1506 1482 1480 1482 1480 1478 1478 1478 1477 1476 1478 1479 1483 1489 1495 1499 1502 1504 1507 1509 1512 1516 1518 1520 1521 1522 1523 1524 1525 1526 1526 1526 1526 1526 1526 1527 1527 1526 1525 1525 1525 1524
1521 1526 1526 1530 1528 1529 1523 1522 1472 1485 1479 1474 1470 1474 1475 1473 1473 1475 1477 1479 1486 1490 1494 1498 1501 1503 1506 1510 1513 1516 1517 1518 1518 1519 1520 1521 1521 1522 1522 1523 1523 1523 1523 1523 1523 1522 1521 1520 1520
1529 1528 1532 1536 1533 1533 1505 1508 1475 1476 1471 1471 1472 1475 1474 1473 1473 1475 1475 1476 1480 1484 1487 1491 1494 1497 1500 1503 1506 1508 1511 1513 1514 1516 1516 1517 1518 1519 1519 1519 1519 1520 1519 1519 1518 1517 1517 1516 1516
1525 1519 1525 1532 1542 1519 1528 1520 1482 1473 1473 1475 1472 1475 1477 1477 1476 1475 1474 1475 1478 1481 1485 1487 1490 1492 1495 1498 1501 1503 1506 1509 1510 1511 1511 1513 1514 1515 1516 1516 1516 1516 1516 1515 1514 1513 1513 1512 1512
1519 1516 1515 1524 1512 1505 1533 1510 1481 1476 1472 1472 1477 1478 1476 1475 1474 1475 1476 1478 1480 1481 1482 1484 1487 1491 1494 1495 1497 1500 1502 1504 1505 1507 1509 1510 1510 1511 1512 1512 1512 1511 1510 1510 1509 1509 1508 1508 1508
1519 1520 1514 1514 1520 1521 1493 1485 1480 1471 1472 1477 1478 1478 1477 1476 1475 1475 1475 1476 1479 1482 1484 1484 1484 1483 1485 1490 1494 1497 1499 1500 1502 1504 1506 1506 1507 1507 1508 1508 1508 1507 1507 1507 1506 1505 1504 1504 1504
1514 1513 1517 1518 1521 1501 1483 1490 1480 1472 1476 1481 1480 1481 1480 1478 1477 1476 1474 1475 1477 1477 1479 1480 1481 1482 1482 1482 1484 1489 1493 1496 1498 1499 1501 1503 1504 1504 1504 1504 1503 1504 1504 1503 1502 1501 1500 1500 1500
1514 1511 1514 1511 1512 1505 1490 1477 1477 1481 1485 1485 1485 1485 1483 1480 1479 1477 1476 1475 1475 1476 1476 1477 1478 1477 1477 1478 1481 1482 1486 1489 1491 1493 1496 1498 1499 1499 1499 1499 1499 1498 1498 1499 1499 1498 1498 1497 1497
1500 1494 1496 1499 1500 1503 1504 1485 1483 1485 1490 1491 1490 1489 1488 1487 1483 1478 1476 1475 1475 1473 1472 1472 1474 1473 1474 1475 1475 1477 1481 1485 1488 1490 1491 1493 1495 1495 1495 1495 1495 1493 1493 1493 1494 1495 1494 1493 1493